This is the latest recevied weather packets stored in our database for station/object NR6J. If no packets are shown the sender has not sent any weather packets the latest 10 day(s).
| Time | Temp. | Humidity | Pressure | Rain* | Wind** | Luminosity | Snow |
|---|---|---|---|---|---|---|---|
| 1778435232 | 22.78° C | 37% | 1017.3 hPa | 0 mm | - | 789 W/m² | - |
| 1778434638 | 22.22° C | 37% | 1017.3 hPa | 0 mm | - | 766 W/m² | - |
| 1778434047 | 21.67° C | 40% | 1017.3 hPa | 0 mm | - | 744 W/m² | - |
| 1778433435 | 20.56° C | 40% | 1017.4 hPa | 0 mm | - | 727 W/m² | - |
| 1778432832 | 20° C | 45% | 1017.4 hPa | 0 mm | - | 702 W/m² | - |
| 1778432234 | 18.89° C | 46% | 1017.5 hPa | 0 mm | - | 651 W/m² | - |
| 1778431643 | 18.33° C | 48% | 1017.5 hPa | 0 mm | - | 45 W/m² | - |
| 1778431095 | 17.78° C | 48% | 1017.6 hPa | 0 mm | - | 41 W/m² | - |
| 1778430441 | 17.22° C | 47% | 1017.5 hPa | 0 mm | - | 41 W/m² | - |
| 1778429840 | 16.67° C | 48% | 1017.5 hPa | 0 mm | - | 36 W/m² | - |
| 1778429233 | 15.56° C | 57% | 1017.5 hPa | 0 mm | - | 48 W/m² | - |
| 1778428630 | 15° C | 65% | 1017.6 hPa | 0 mm | - | 30 W/m² | - |
| 1778428032 | 15° C | 65% | 1017.5 hPa | 0 mm | - | 30 W/m² | - |
| 1778427443 | 13.89° C | 69% | 1017.5 hPa | 0 mm | - | 33 W/m² | - |
| 1778426831 | 13.33° C | 71% | 1017.5 hPa | 0 mm | - | 183 W/m² | - |
| 1778426227 | 12.78° C | 72% | 1017.5 hPa | 0 mm | - | 46 W/m² | - |
| 1778425632 | 12.22° C | 71% | 1017.5 hPa | 0 mm | - | 128 W/m² | - |
| 1778425025 | 11.67° C | 71% | 1017.4 hPa | 0 mm | - | 224 W/m² | - |
| 1778424424 | 10° C | 75% | 1017.5 hPa | 0 mm | - | 226 W/m² | - |
| 1778423897 | 8.89° C | 78% | 1017.5 hPa | 0 mm | - | 53 W/m² | - |
| 1778423293 | 8.33° C | 78% | 1017.5 hPa | 0 mm | - | 22 W/m² | - |
| 1778422621 | 7.78° C | 77% | 1017.4 hPa | 0 mm | - | 19 W/m² | - |
| 1778422032 | 7.78° C | 76% | 1017.4 hPa | 0 mm | - | 17 W/m² | - |
| 1778421425 | 7.78° C | 75% | 1017.4 hPa | 0 mm | - | 14 W/m² | - |
| 1778420830 | 7.78° C | 75% | 1017.4 hPa | 0 mm | - | 13 W/m² | - |
* Rain latest hour (hover to see other rain measurements)
** Current wind speed in m/s (hover to see current wind gust speed)